Weather History for Monroe, WI

Change the Weather History Date:

Wednesday, May 8, 2013

  Actual Average Record
Temperature  
Mean Temperature 67 °F -  
Max Temperature 80 °F 0 °F 82 °F (2005)
Min Temperature 55 °F - 33 °F (2001)
Cooling Degree Days 2    
Growing Degree Days 17 (Base 50)    
Moisture  
Dew Point 43 °F    
Average Humidity 42    
Maximum Humidity 64    
Minimum Humidity 22    
Precipitation  
Precipitation 0.00 in - - ()
Sea Level Pressure  
Sea Level Pressure 30.00 in    
Wind  
Wind Speed 6 mph (South)    
Max Wind Speed 10 mph    
Max Gust Speed -    
Visibility 9 miles    
Events      
Averages and records for this station are not official NWS values.
T = Trace of Precipitation, MM = Missing Value Source: NWS Daily Summary

Daily Weather History Graph

Daily Weather History Graph

Search for Another Location

Airport:

Trip Planner

Search our weather history database for the weather conditions in past years. The results will help you decide how hot, cold, wet, or windy it might be!

Date:

Astronomy

May. 08, 2013 Rise Set
Actual Time 5:43 AM CDT 8:06 PM CDT
Civil Twilight 5:12 AM CDT 8:38 PM CDT
Nautical Twilight 4:32 AM CDT 9:17 PM CDT
Astronomical Twilight 3:49 AM CDT 10:01 PM CDT
Moon 4:53 AM CDT (5/8) 7:03 PM CDT (5/8)
Length of Visible Light 15h 26m
Length of Day
14h 22m
Waning Crescent, 2% of the Moon is Illuminated
May 8
Waning Crescent
May 9
New
May 17
First Quarter
May 24
Full
May 31
Last Quarter

Hourly Weather History & Observations

Time (CDT) Temp. Dew Point Humidity Pressure Visibility Wind Dir Wind Speed Gust Speed Precip Events Conditions
12:15 AM 61.0 °F 40.3 °F 46% 30.01 in 10.0 mi ESE 6.9 mph - N/A   Clear
12:35 AM 60.8 °F 40.5 °F 47% 30.01 in 10.0 mi ESE 6.9 mph - N/A   Clear
12:55 AM 61.3 °F 42.1 °F 49% 30.00 in 10.0 mi SE 6.9 mph - N/A   Clear
1:15 AM 60.6 °F 42.8 °F 52% 30.00 in 7.0 mi SE 6.9 mph - N/A   Clear
1:35 AM 60.8 °F 42.8 °F 52% 30.00 in 2.0 mi SE 6.9 mph - N/A   Haze
1:55 AM 60.8 °F 42.8 °F 52% 30.00 in 1.0 mi SSE 8.1 mph - N/A   Haze
2:15 AM 60.1 °F 42.8 °F 53% 30.00 in 0.8 mi SSE 6.9 mph - N/A   Haze
2:35 AM 59.7 °F 42.8 °F 54% 30.00 in 3.0 mi SE 4.6 mph - N/A   Haze
2:55 AM 59.9 °F 42.8 °F 53% 30.00 in 10.0 mi SE 5.8 mph - N/A   Clear
3:15 AM 59.2 °F 43.0 °F 55% 30.00 in 2.5 mi SE 5.8 mph - N/A   Haze
3:35 AM 58.1 °F 43.2 °F 58% 30.00 in 10.0 mi SSE 5.8 mph - N/A   Clear
3:55 AM 58.1 °F 43.0 °F 57% 30.00 in 10.0 mi South 6.9 mph - N/A   Clear
4:15 AM 57.7 °F 43.0 °F 58% 30.00 in 10.0 mi South 5.8 mph - N/A   Clear
4:35 AM 57.2 °F 42.8 °F 59% 30.00 in 10.0 mi South 5.8 mph - N/A   Clear
4:55 AM 56.8 °F 42.8 °F 59% 30.01 in 10.0 mi SSE 6.9 mph - N/A   Clear
5:15 AM 57.2 °F 43.2 °F 59% 30.01 in 10.0 mi SSE 5.8 mph - N/A   Clear
5:35 AM 56.1 °F 42.8 °F 61% 30.01 in 10.0 mi SE 5.8 mph - N/A   Clear
5:55 AM 56.3 °F 42.8 °F 61% 30.02 in 10.0 mi SE 5.8 mph - N/A   Clear
6:15 AM 55.6 °F 42.8 °F 62% 30.02 in 10.0 mi SE 6.9 mph - N/A   Clear
6:35 AM 55.8 °F 43.5 °F 63% 30.03 in 10.0 mi SSE 5.8 mph - N/A   Clear
6:55 AM 56.8 °F 44.6 °F 64% 30.03 in 10.0 mi SSE 4.6 mph - N/A   Clear
7:15 AM 58.1 °F 46.0 °F 64% 30.04 in 10.0 mi South 5.8 mph - N/A   Clear
7:35 AM 58.8 °F 46.6 °F 64% 30.04 in 10.0 mi South 4.6 mph - N/A   Clear
7:55 AM 60.1 °F 45.3 °F 58% 30.05 in 10.0 mi South 6.9 mph - N/A   Clear
8:15 AM 61.9 °F 46.0 °F 56% 30.04 in 10.0 mi South 5.8 mph - N/A   Clear
8:35 AM 63.3 °F 46.9 °F 55% 30.05 in 10.0 mi South 5.8 mph - N/A   Clear
8:55 AM 65.3 °F 47.3 °F 52% 30.05 in 10.0 mi South 5.8 mph - N/A   Clear
9:15 AM 66.7 °F 46.2 °F 48% 30.05 in 10.0 mi South 6.9 mph - N/A   Clear
9:35 AM 68.0 °F 45.9 °F 45% 30.04 in 10.0 mi South 5.8 mph - N/A   Clear
9:55 AM 69.6 °F 47.5 °F 45% 30.04 in 10.0 mi South 4.6 mph - N/A   Clear
10:15 AM 70.3 °F 45.3 °F 41% 30.04 in 10.0 mi SSW 4.6 mph - N/A   Clear
10:35 AM 71.6 °F 46.6 °F 41% 30.04 in 10.0 mi South 4.6 mph - N/A   Clear
10:55 AM 72.7 °F 48.9 °F 43% 30.04 in 10.0 mi South 3.5 mph - N/A   Clear
11:15 AM 73.8 °F 46.9 °F 38% 30.04 in 10.0 mi Calm Calm - N/A   Clear
11:35 AM 75.0 °F 46.2 °F 36% 30.04 in 10.0 mi South 3.5 mph - N/A   Clear
11:55 AM 75.7 °F 45.0 °F 33% 30.03 in 10.0 mi SSE 4.6 mph - N/A   Clear
12:15 PM 76.5 °F 42.8 °F 30% 30.02 in 10.0 mi Calm Calm - N/A   Clear
12:35 PM 77.5 °F 36.3 °F 23% 30.02 in 10.0 mi Calm Calm - N/A   Clear
12:55 PM 77.5 °F 40.1 °F 26% 30.01 in 10.0 mi East 3.5 mph - N/A   Scattered Clouds
1:15 PM 78.1 °F 41.7 °F 27% 30.01 in 10.0 mi Calm Calm - N/A   Mostly Cloudy
1:35 PM 78.8 °F 43.2 °F 28% 30.00 in 10.0 mi Calm Calm - N/A   Mostly Cloudy
1:55 PM 77.5 °F 42.4 °F 29% 30.00 in 10.0 mi South 5.8 mph - N/A   Mostly Cloudy
2:15 PM 77.2 °F 39.2 °F 26% 30.00 in 10.0 mi Calm Calm - N/A   Scattered Clouds
2:35 PM 78.3 °F 40.3 °F 26% 30.00 in 10.0 mi Calm Calm - N/A   Clear
2:55 PM 78.3 °F 40.6 °F 26% 29.99 in 10.0 mi SSE 6.9 mph - N/A   Clear
3:35 PM 78.3 °F 36.5 °F 22% 29.98 in 10.0 mi WNW 3.5 mph - N/A   Scattered Clouds
3:55 PM 79.0 °F 37.4 °F 22% 29.98 in 10.0 mi Calm Calm - N/A   Mostly Cloudy
4:15 PM 78.4 °F 39.0 °F 24% 29.98 in 10.0 mi SW 10.4 mph - N/A   Overcast
4:35 PM 77.9 °F 37.2 °F 23% 29.98 in 10.0 mi WSW 8.1 mph - N/A   Overcast
4:55 PM 79.2 °F 38.5 °F 23% 29.98 in 10.0 mi West 5.8 mph - N/A   Overcast
5:15 PM 78.3 °F 39.6 °F 25% 29.97 in 10.0 mi Calm Calm - N/A   Scattered Clouds
5:35 PM 77.0 °F 41.0 °F 28% 29.97 in 10.0 mi SSW 5.8 mph - N/A   Scattered Clouds
5:55 PM 76.1 °F 43.2 °F 31% 29.97 in 10.0 mi SSW 5.8 mph - N/A   Mostly Cloudy
6:15 PM 76.1 °F 43.3 °F 31% 29.97 in 10.0 mi SSW 4.6 mph - N/A   Mostly Cloudy
6:35 PM 76.1 °F 44.2 °F 32% 29.97 in 10.0 mi SW 4.6 mph - N/A   Mostly Cloudy
6:55 PM 75.6 °F 44.1 °F 32% 29.97 in 10.0 mi SW 5.8 mph - N/A   Overcast
7:15 PM 75.2 °F 42.6 °F 31% 29.97 in 10.0 mi West 6.9 mph - N/A   Overcast
7:35 PM 74.5 °F 42.8 °F 32% 29.97 in 10.0 mi West 5.8 mph - N/A   Scattered Clouds
7:55 PM 74.3 °F 42.8 °F 32% 29.97 in 10.0 mi West 6.9 mph - N/A   Clear
8:15 PM 73.4 °F 42.8 °F 33% 29.97 in 10.0 mi West 6.9 mph - N/A   Clear
8:35 PM 73.4 °F 42.1 °F 32% 29.97 in 10.0 mi West 5.8 mph - N/A   Clear
8:55 PM 73.4 °F 42.1 °F 32% 29.98 in 10.0 mi West 5.8 mph - N/A   Clear
9:15 PM 72.9 °F 42.3 °F 33% 29.98 in 10.0 mi WSW 3.5 mph - N/A   Clear
9:35 PM 72.0 °F 43.0 °F 35% 29.98 in 10.0 mi WSW 3.5 mph - N/A   Clear
10:15 PM 70.9 °F 43.9 °F 38% 29.98 in 10.0 mi Calm Calm - N/A   Clear
10:35 PM 69.8 °F 44.1 °F 39% 29.98 in 10.0 mi Calm Calm - N/A   Mostly Cloudy